www.pogodaiklimat.ru

Погода и климат >> Архив погоды >> Киргизия >> Бишкек


АРХИВ ПОГОДЫ в Бишкеке

Время (UTC), дата Ветер
(напр.,м/с)
 
Видим.   Явления Облачность Т
(С)
Тd
(С)
f
(%)
Тe
(С)
Тes
(С)
Комфортность P
(гПа)
Po
(гПа)
Тmin
(С)
Tmax
(С)
R
(мм)
R24
(мм)
S
(см)
00 16.09 ЮВ 1 н/о ясно +13.3 +0.9 43 +14 +14 по сезону 1018.7 931.9
03 16.09 штиль 0 20 км ясно +18.8 +1.5 31 +19 +23 тепло 1017.5 932.4 +9.7
06 16.09 СЗ 2 20 км 3/0
[Ci fib]
+23.8 +0.4 21 +23 +33 комфорт 1015.8 932.1
09 16.09 З 2 20 км 1/1 1000 м
[Cu hum]
+26.6 -0.7 17 +25 +33 комфорт 1013.9 931.1
12 16.09 З 1 20 км ясно +26.7 +3.0 22 +25 +26 комфорт 1013.8 931.1
15 16.09 Ю 1 н/о ясно +19.5 -0.5 26 +21 +21 комфорт 1016.9 931.9 +27.6
18 16.09 штиль 0 н/о ясно +17.3 +0.6 32 +17 +17 по сезону 1016.5 930.9 +27.6
21 16.09 штиль 0 н/о ясно +15.9 -0.5 33 +16 +16 тепло 1015.2 929.4
00 17.09 штиль 0 н/о ясно +11.3 +0.6 48 +11 +11 по сезону 1016.6 929.4
03 17.09 штиль 0 20 км 10/0
[Ci fib]
+17.6 +2.9 37 +18 +21 по сезону 1015.0 929.7 +10.3
06 17.09 С 1 20 км 10/0
[Ci fib]
+24.5 +2.5 24 +24 +34 комфорт 1013.0 929.7
09 17.09 СЗ 1 20 км 8/0
[Ci fib]
+26.8 +2.9 21 +25 +34 комфорт 1011.5 929.0
12 17.09 СЗ 1 20 км 1/0
[Ci fib]
+26.0 +1.5 20 +24 +25 комфорт 1011.6 928.9
15 17.09 Ю 1 н/о ясно +19.7 +1.9 31 +21 +21 комфорт 1014.5 929.8 +27.9
18 17.09 СВ 1 н/о ясно +18.9 +2.7 34 +20 +20 тепло 1014.5 929.6 +27.9
21 17.09 штиль 0 н/о ясно +13.7 +0.9 42 +14 +14 по сезону 1015.1 928.7
00 18.09 штиль 0 н/о ясно +12.1 +1.9 50 +12 +12 по сезону 1016.2 929.3
03 18.09 З 1 20 км ясно +17.4 +0.9 33 +18 +22 по сезону 1016.0 930.5 +9.9
06 18.09 З 1 20 км ясно +22.6 +3.4 28 +22 +35 комфорт 1014.4 930.5
09 18.09 З 2 20 км 1/0
[Ac trans]
+26.0 +0.4 19 +24 +33 комфорт 1012.5 929.6
12 18.09 СЗ 2 20 км 1/0
[Ac trans]
+25.6 -0.5 18 +24 +25 комфорт 1012.9 929.6
15 18.09 Ю 1 н/о ясно +18.2 +4.3 40 +19 +19 по сезону 1015.3 930.2 +27.6
18 18.09 штиль 0 н/о ясно +15.5 +4.1 47 +15 +15 по сезону 1015.4 929.5 +27.6
21 18.09 штиль 0 н/о ясно +15.9 +1.9 39 +16 +16 тепло 1014.3 928.6
00 19.09 штиль 0 н/о ясно +13.1 +1.5 45 +13 +13 по сезону 1014.0 927.5
03 19.09 ЮВ 1 20 км 8/0
[Ci fib]
+21.4 +1.5 27 +21 +24 комфорт 1012.0 928.0 +11.7
06 19.09 штиль 0 20 км 4/0
[Ac trans Ci fib]
+28.2 +2.9 20 +26 +38 жарко 1009.5 927.5
09 19.09 СЗ 2 20 км 8/0
[Ac trans Ci fib]
+30.4 -1.7 12 +27 +33 жарко 1008.3 926.9
12 19.09 З 1 20 км 10/3 600 м
[Cb cap Ac trans]
+27.7 +1.1 18 +26 +26 жарко 1010.4 928.3
15 19.09 Ю 2 н/о 6/0
[Ac trans]
+23.3 +4.6 30 +23 +23 комфорт 1011.6 928.2 +31.2
18 19.09 В 3 н/о 8/0
[Ac trans]
+19.7 +5.0 38 +21 +21 комфорт 1011.7 927.4 +31.2
21 19.09 З 1 н/о 3/0
[Ci fib]
+17.6 +2.1 35 +19 +19 тепло 1010.9 926.0
00 20.09 Ю 1 н/о ясно +15.3 +1.9 40 +16 +16 тепло 1011.7 926.1
03 20.09 В 1 20 км 10/6 600 м
[Cb cap Ac trans]
+18.0 +2.3 35 +19 +20 тепло 1011.2 926.4
06 20.09 С 1 20 км 10/3 600 м
[Cb cap Ac trans Ci fib]
+26.6 +6.7 28 +26 +31 жарко 1008.1 925.9
09 20.09 З 5 20 км 10/6 600 м
[Cb cap Ac trans]
+25.1 +6.4 30 +25 +26 комфорт 1009.2 926.5
12 20.09 З 1-2
{12}
20 км 10/8 600 м
[Cb cap Ac trans]
+23.3 +5.8 32 +24 +24 комфорт 1011.7 928.3
15 20.09 ЮЗ 1 н/о 10/0
[Ac trans Ci fib]
+20.3 +7.7 44 +22 +22 комфорт 1014.1 929.8 +28.0
18 20.09 ЮЗ 1 н/о 10/0
[Ac trans Ci fib]
+17.1 +7.1 52 +18 +18 тепло 1014.6 929.4 +28.0
21 20.09 штиль 0 н/о 8/0
[Ac trans]
+16.7 +7.6 55 +17 +17 тепло 1015.4 929.9
00 21.09 С 1 н/о 10/0
[Ac trans Ci fib]
+16.5 +8.0 57 +17 +17 тепло 1017.4 931.7
03 21.09 Ю 1 20 км 8/0
[Ac trans]
+17.8 +8.5 54 +19 +21 тепло 1017.9 932.5 +15.1
06 21.09 СЗ 1 20 км 8/5 1000 м
[Cu hum Ac trans]
+20.2 +7.8 45 +22 +26 комфорт 1017.1 932.5
09 21.09 СЗ 2 20 км ?/? +21.2 +7.7 42 +22 +22 комфорт 1016.4 932.1
12 21.09 СЗ 2 20 км 10/4 600 м
[Cb calv Ac inh]
+18.6 +6.5 45 +19 +20 прохладно 1018.8 933.5
15 21.09 ЮЗ 1 н/о 4/0
[Ac trans]
+16.3 +7.3 55 +17 +17 по сезону 1020.1 934.2 +22.6
18 21.09 Ю 1 н/о ясно +14.3 +7.8 65 +15 +15 по сезону 1019.6 933.1 +22.6
21 21.09 штиль 0 н/о ясно +13.1 +6.8 66 +13 +13 по сезону 1019.9 933.1
00 22.09 Ю 1 н/о ясно +12.4 +6.1 65 +13 +13 тепло 1020.8 933.6
03 22.09 штиль 0 20 км 10/0
[Ac trans]
+13.6 +6.8 63 +13 +15 прохладно 1021.2 934.4 +10.1
06 22.09 С 1 20 км 8/3 600 м
[Cb cap Ac trans]
+19.9 +6.7 42 +22 +27 комфорт 1018.7 933.8
09 22.09 В 1 20 км 6/3 600 м
[Cb cap Ac trans]
+22.2 +4.5 31 +22 +28 комфорт 1016.2 932.1
12 22.09 ЮЗ 1 20 км 8/3 600 м
[Cb cap Ac trans]
+22.6 +4.0 30 +23 +23 комфорт 1015.7 931.7
15 22.09 Ю 1 н/о 8/0
[Ac trans]
+19.6 +6.7 43 +21 +21 комфорт 1018.0 933.1 +23.4
18 22.09 Ю 2 н/о 8/0
[Ac trans]
+15.8 +6.1 52 +16 +16 тепло 1018.8 932.8 +23.4

 

Местоположение метеостанции Бишкек (город Бишкек, Киргизия): широта 42.85 долгота 74.53 высота над уровнем моря 760 м.

В архиве по умолчанию представлена погода в Бишкеке за последнюю неделю. Архивные данные за месяц целиком и за предыдущие месяцы, начиная с января 2011 года, Вы можете получить, выбрав интересующий диапазон дат из раскрывающегося списка и нажав кнопку "Ввод!".


*Определитесь, кто Вы:
робот инопланетянин человек

Внимание! Время в таблицах - всемирное. Для получения местного времени необходимо прибавить поправку, которая в Бишкеке равна 6 ч.

Смотрите также архив погоды в соседних городах и на ближайших метеорологических станциях:

Погода в Байтике (Чуйская область, Киргизия) (22 км)
Погода в Иссык-Ате (город Бишкек, Киргизия) (28 км)
Погода в Яны-Жере (Чуйская область, Киргизия) (46 км)
Погода в Бериктасе (Жамбылская область, Казахстан) (49 км)
Погода в Кара-Балте (Чуйская область, Киргизия) (58 км)
Погода в Тео-Ашуу (Чуйская область, Киргизия) (58 км)
Погода в Токмоке (Чуйская область, Киргизия) (61 км)
Погода в Кордае (Жамбылская область, Казахстан) (66 км)
Погода в Сусамыре (Чуйская область, Киргизия) (90 км)
Погода в Отаре (Жамбылская область, Казахстан) (96 км)

Пояснения к столбцам:

Ветер - указаны скорость ветра в м/с - средняя за 10 мин, порывы в срок и между сроками (в фигурных скобках) и направление, откуда дует ветер: С - северный, СВ - северо-восточный, В - восточный, ЮВ - юго-восточный, Ю - южный, ЮЗ - юго-западный, З - западный, СЗ - северо-западный.
Видимость - горизонтальная дальность видимости в метрах или километрах. При видимости от 1 до 10 км при отсутствии осадков обычно наблюдается дымка, при ухудшении видимости до 1 км и менее - туман. В сухую погоду видимость может ухудшаться дымом, пылью или мглою.
Явления - указаны атмосферные явления, наблюдавшиеся в срок или в последний час перед сроком; фигурными скобками обозначены явления, наблюдавшиеся между сроками (за 1-3 часа до срока); квадратными скобками обозначены град или гололедные отложения с указанием их диаметра в мм.
Облачность - указаны через наклонную черту общая и нижняя облачность в баллах и высота нижней границы облаков в метрах; квадратными скобками обозначены формы облаков: Ci - перистые, Cs - перисто-слоистые, Cc - перисто-кучевые, Ac - высококучевые, As - высокослоистые, Sc - слоисто-кучевые, Ns - слоисто-дождевые, Cu - кучевые, Cb - кучево-дождевые. Подробнее классификацию облаков см. в Атласе облаков (PDF).
T - Температура воздуха - температура, измеренная на высоте 2 м над землей.
Td - Температура точки росы - температура, при понижении до которой содержащийся в воздухе водяной пар достигнет насыщения.
f - Относительная влажность воздуха - влажноcть воздуха, измеренная на высоте 2 м над землей.
Te - Эффективная температура - температура, которую ощущает одетый по сезону человек в тени. Характеристика душности погоды. При расчете учитывается влияние влажности воздуха и скорости ветра на теплоощущения человека.
Tes - Эффективная температура на солнце - температура, которую ощущает человек, с поправкой на солнечный нагрев. Характеристика знойности погоды. Зависит от высоты солнца над горизонтом, облачности и скорости ветра. Ночью, в пасмурную погоду, а также при ветре 12 м/с и более поправка равна нулю.
P - Атмосферное давление - приведенное к уровню моря атмосферное давление.
Po - Атмосферное давление - измеренное на уровне метеостанции атмосферное давление.
Tmin - Минимальная температура - минимум температуры воздуха на высоте 2 м над землей.
Tmax - Максимальная температура - максимум температуры воздуха на высоте 2 м над землей.
R - Количество осадков - Количество выпавших осадков за период времени, мм. При наведении курсора мыши на число - период времени, за который выпало указанное количество осадков.
R24 - Количество осадков - Количество выпавших осадков за 24 часа, мм.
S - Снежный покров - Высота снежного покрова, см. При наведении курсора мыши на число - состояние снежного покрова и степень покрытия местности в баллах.